Flag for Mexico Weather past 2 weeks in Puerto Vallarta, Jalisco, Mexico

Now
72 °F

Partly cloudy.


Feels Like: 69 °F
Forecast: 65 / 83 °F
Wind: 5 mph from Northeast

Location: Puerto Vallarta / Lic

Current Time: Apr 1, 2015 at 3:58:07 AM

Latest Report: Apr 1, 2015 at 12:45 AM


Visibility: 12 mi

Pressure: 29.94 "Hg

Humidity: 88%

Dew point: 68 °F

Location of Puerto VallartaLocation

Historic Weather in Puerto Vallarta — Graph

°F

Puerto Vallarta temperature yesterday

Maximum temperature yesterday: 81 °F (at 2:47 PM)
Minimum temperature yesterday: 64 °F (at 5:48 AM)
Average temperature yesterday: 73 °F

Past Weeks' High & Low Weather Summary

 TemperatureHumidityPressure
High99 °F (Mar 21, 2:48 PM)100% (Mar 19, 1:45 AM)30.05 "Hg (Mar 19, 1:45 AM)
Low61 °F (Mar 17, 2:45 AM)35% (Mar 21, 2:48 PM)29.86 "Hg (Mar 26, 4:47 PM)
Average73 °F81%29.96 "Hg
* Reported Mar 17 12:49 AM — Apr 1 12:45 AM, Puerto Vallarta, Weather by CustomWeather, © 2015

Note: Actual official high and low records may vary slightly from our data, if they occured in-between our weather recording intervals... More about our weather records

Advertising

Puerto Vallarta weather history for previous 24 hours

 ConditionsComfort  
Time TempWeatherWind HumidityBarometerVisibility
12:45 AM
Wed, Apr 1
72 °FPartly cloudy.5 mph88%29.94 "Hg12 mi
10:41 PM
Tue, Mar 31
72 °FPassing clouds.No wind88%29.94 "Hg12 mi
9:45 PM75 °FPassing clouds.5 mph78%29.92 "Hg12 mi
8:47 PM77 °FPassing clouds.6 mph74%29.90 "Hg12 mi
7:47 PM77 °FPassing clouds.5 mph79%29.90 "Hg15 mi
6:47 PM77 °FPartly sunny.7 mph79%29.89 "Hg15 mi
5:51 PM77 °FPartly sunny.7 mph79%29.86 "Hg15 mi
4:45 PM79 °FHigh level clouds.7 mph74%29.88 "Hg15 mi
3:59 PM79 °FHigh level clouds.10 mph79%29.89 "Hg15 mi
2:47 PM81 °FHigh level clouds.10 mph74%29.93 "Hg15 mi
12:47 PM79 °FPartly sunny.14 mph74%29.99 "Hg15 mi
10:50 AM77 °FPartly sunny.7 mph69%29.99 "Hg15 mi
8:45 AM70 °FScattered clouds.No wind73%29.95 "Hg15 mi
7:45 AM64 °FScattered clouds.No wind88%29.93 "Hg15 mi
6:52 AM64 °FPassing clouds.5 mph88%29.93 "Hg15 mi
5:48 AM64 °FClear.No wind94%29.92 "Hg12 mi
4:53 AM68 °FClear.No wind94%29.93 "Hg12 mi
3:47 AM68 °FClear.No wind94%29.93 "Hg12 mi
Weather by CustomWeather, © 2015

See weather overviewHow to use our weather pages